Weather History for West Palm Beach, FL

Change the Weather History Date:

Thursday, November 25, 2010

  Actual Average Record
Temperature  
Mean Temperature 78 °F 71 °F  
Max Temperature 83 °F 79 °F 88 °F (1947)
Min Temperature 73 °F 64 °F 36 °F (1917)
Degree Days  
Heating Degree Days 0 1  
Month to date heating degree days 9 4  
Since 1 July heating degree days 9 5  
Cooling Degree Days 13 7  
Month to date cooling degree days 202 211  
Year to date cooling degree days 3970 3832  
Growing Degree Days 28 (Base 50)    
Moisture  
Dew Point 65 °F    
Average Humidity 65    
Maximum Humidity 74    
Minimum Humidity 55    
Precipitation  
Precipitation 0.00 in 0.13 in 5.16 in (2000)
Month to date precipitation 1.14 4.09  
Year to date precipitation 51.85 58.29  
Snow  
Snow 0.00 in - - ()
Month to date snowfall 0.0  
Since 1 July snowfall 0.0  
Since 1 September snowfall 0.0  
Snow Depth 0.00 in    
Sea Level Pressure  
Sea Level Pressure 30.05 in    
Wind  
Wind Speed 10 mph (ESE)    
Max Wind Speed 17 mph    
Max Gust Speed 25 mph    
Visibility 10 miles    
Events      
T = Trace of Precipitation, MM = Missing Value Source: NWS Daily Summary

Daily Weather History Graph

Daily Weather History Graph

Search for Another Location

Airport:

Trip Planner

Search our weather history database for the weather conditions in past years. The results will help you decide how hot, cold, wet, or windy it might be!

Date:

Astronomy

Nov. 25, 2010 Rise Set
Actual Time 6:47 AM EST 5:27 PM EST
Civil Twilight 6:22 AM EST 5:52 PM EST
Nautical Twilight 5:53 AM EST 6:20 PM EST
Astronomical Twilight 5:26 AM EST 6:48 PM EST
Moon 9:20 PM EST (11/25) 10:15 AM EST (11/25)
Length of Visible Light 11h 29m
Length of Day
10h 40m
Waning Gibbous, 83% of the Moon is Illuminated
Nov 25
Waning Gibbous
Nov 28
Last Quarter
Dec 5
New
Dec 13
First Quarter
Dec 21
Full

Hourly Weather History & Observations

Time (EST) Temp. Heat Index Dew Point Humidity Pressure Visibility Wind Dir Wind Speed Gust Speed Precip Events Conditions
12:53 AM 75.0 °F - 64.9 °F 71% 30.06 in 10.0 mi East 6.9 mph - N/A   Scattered Clouds
1:53 AM 75.0 °F - 64.0 °F 69% 30.05 in 10.0 mi East 9.2 mph - N/A   Partly Cloudy
2:53 AM 75.0 °F - 64.9 °F 71% 30.05 in 10.0 mi East 8.1 mph - N/A   Scattered Clouds
3:53 AM 73.9 °F - 64.0 °F 71% 30.05 in 10.0 mi East 8.1 mph - N/A   Partly Cloudy
4:53 AM 73.9 °F - 64.9 °F 73% 30.04 in 10.0 mi East 6.9 mph - N/A   Partly Cloudy
5:53 AM 73.9 °F - 64.9 °F 73% 30.05 in 10.0 mi East 8.1 mph - N/A   Scattered Clouds
6:53 AM 75.0 °F - 66.9 °F 76% 30.06 in 10.0 mi East 6.9 mph - N/A   Mostly Cloudy
7:53 AM 77.0 °F - 68.0 °F 74% 30.07 in 10.0 mi ESE 9.2 mph - N/A   Mostly Cloudy
8:53 AM 80.1 °F 82.1 °F 66.0 °F 62% 30.09 in 10.0 mi SE 13.8 mph - N/A   Mostly Cloudy
9:53 AM 81.0 °F 82.7 °F 64.9 °F 58% 30.10 in 10.0 mi SE 11.5 mph - N/A   Scattered Clouds
10:53 AM 81.0 °F 83.0 °F 66.0 °F 60% 30.10 in 10.0 mi ESE 11.5 mph - N/A   Mostly Cloudy
11:53 AM 82.0 °F 83.4 °F 64.0 °F 54% 30.08 in 10.0 mi SE 15.0 mph - N/A   Partly Cloudy
12:53 PM 82.0 °F 84.1 °F 66.0 °F 58% 30.05 in 10.0 mi SSE 11.5 mph 20.7 mph N/A   Scattered Clouds
1:53 PM 82.9 °F 84.4 °F 64.0 °F 53% 30.04 in 10.0 mi SE 11.5 mph - N/A   Scattered Clouds
2:53 PM 80.1 °F 81.9 °F 64.9 °F 60% 30.03 in 10.0 mi SE 10.4 mph - N/A   Mostly Cloudy
3:53 PM 80.1 °F 82.1 °F 66.0 °F 62% 30.03 in 10.0 mi SSE 10.4 mph - N/A   Scattered Clouds
4:53 PM 78.1 °F - 66.0 °F 66% 30.04 in 10.0 mi SSE 6.9 mph - N/A   Mostly Cloudy
5:53 PM 78.1 °F - 66.0 °F 66% 30.03 in 10.0 mi SE 10.4 mph - N/A   Mostly Cloudy
6:53 PM 78.1 °F - 64.9 °F 64% 30.04 in 10.0 mi SE 10.4 mph - N/A   Mostly Cloudy
7:53 PM 78.1 °F - 64.0 °F 62% 30.04 in 10.0 mi SE 10.4 mph - N/A   Mostly Cloudy
8:53 PM 78.1 °F - 62.1 °F 58% 30.04 in 10.0 mi SE 11.5 mph - N/A   Mostly Cloudy
9:53 PM 77.0 °F - 63.0 °F 62% 30.05 in 10.0 mi SE 12.7 mph - N/A   Mostly Cloudy
10:53 PM 77.0 °F - 64.0 °F 64% 30.04 in 10.0 mi SE 12.7 mph - N/A   Scattered Clouds
11:53 PM 77.0 °F - 64.0 °F 64% 30.04 in 10.0 mi SE 10.4 mph - N/A   Scattered Clouds